ACH2055 LFMN-EBBR

Flight info

Callsign ACH2055
Flight time 1h 16m
Altitude 32000
Route IRMAR DCT KINES DCT VANAS DCT MOBLO DCT UBIMA DCT GILIR DCT PENDU DCT IXILU DCT GIVOR DCT SORAL DCT IBERA N853 DIK Y37 BATTY
Aircraft B738/M-SDE2E3FGHIRWXY/LB1

Departure

Time 2026-05-07 09:26
Airport Nice-Côte d'Azur Airport (LFMN)

Arrival

Time 2026-05-07 10:43
Airport Brussels Airport (EBBR)
Time Latitude Longitude Altitude Speed Heading
2026-05-07 09:21 43.66187 7.21210 21 ft 13 kts 222°
2026-05-07 09:21 43.66122 7.21129 21 ft 12 kts 224°
2026-05-07 09:22 43.66065 7.21043 21 ft 12 kts 225°
2026-05-07 09:22 43.66005 7.20964 21 ft 12 kts 221°
2026-05-07 09:22 43.65945 7.20882 21 ft 13 kts 227°
2026-05-07 09:22 43.65876 7.20789 21 ft 15 kts 221°
2026-05-07 09:23 43.65794 7.20689 21 ft 17 kts 223°
2026-05-07 09:23 43.65715 7.20576 21 ft 16 kts 225°
2026-05-07 09:23 43.65635 7.20470 21 ft 16 kts 226°
2026-05-07 09:23 43.65561 7.20364 21 ft 15 kts 223°
2026-05-07 09:24 43.65488 7.20265 21 ft 14 kts 225°
2026-05-07 09:24 43.65413 7.20183 22 ft 14 kts 192°
2026-05-07 09:24 43.65329 7.20230 21 ft 13 kts 139°
2026-05-07 09:24 43.65263 7.20317 21 ft 14 kts 134°
2026-05-07 09:25 43.65225 7.20428 21 ft 14 kts 80°
2026-05-07 09:25 43.65358 7.20652 21 ft 60 kts 44°
2026-05-07 09:25 43.65806 7.21260 22 ft 117 kts 46°
2026-05-07 09:25 43.66477 7.22222 73 ft 156 kts 49°
2026-05-07 09:26 43.67124 7.23423 487 ft 164 kts 68°
2026-05-07 09:26 43.67112 7.25058 768 ft 179 kts 114°
2026-05-07 09:26 43.66281 7.26301 1522 ft 172 kts 139°
2026-05-07 09:26 43.65379 7.27340 2294 ft 173 kts 139°
2026-05-07 09:27 43.64390 7.28521 2586 ft 199 kts 139°
2026-05-07 09:27 43.63300 7.29831 2805 ft 214 kts 139°
2026-05-07 09:27 43.60717 7.31823 3769 ft 222 kts 182°
2026-05-07 09:28 43.59245 7.31228 4402 ft 219 kts 211°
2026-05-07 09:28 43.57941 7.30140 5099 ft 220 kts 214°
2026-05-07 09:28 43.56644 7.29017 5835 ft 220 kts 215°
2026-05-07 09:28 43.55419 7.27803 6521 ft 219 kts 231°
2026-05-07 09:29 43.54765 7.25944 7150 ft 218 kts 263°
2026-05-07 09:29 43.54900 7.23868 7780 ft 221 kts 290°
2026-05-07 09:29 43.55703 7.22038 8416 ft 226 kts 306°
2026-05-07 09:29 43.56685 7.20328 9065 ft 229 kts 306°
2026-05-07 09:30 43.57680 7.18598 9711 ft 232 kts 306°
2026-05-07 09:30 43.58684 7.16845 10339 ft 234 kts 306°
2026-05-07 09:30 43.59683 7.15092 10945 ft 236 kts 306°
2026-05-07 09:30 43.60734 7.13324 11567 ft 240 kts 315°
2026-05-07 09:31 43.62217 7.12179 12037 ft 255 kts 338°
2026-05-07 09:31 43.63980 7.11373 12229 ft 278 kts 340°
2026-05-07 09:31 43.65910 7.10531 12414 ft 301 kts 340°
2026-05-07 09:31 43.67962 7.09644 12589 ft 323 kts 340°
2026-05-07 09:32 43.70176 7.08683 12751 ft 344 kts 340°
2026-05-07 09:32 43.72529 7.07656 12922 ft 364 kts 340°
2026-05-07 09:32 43.74988 7.06579 13330 ft 374 kts 340°
2026-05-07 09:32 43.77462 7.05491 13935 ft 379 kts 340°
2026-05-07 09:33 43.79985 7.04378 14615 ft 380 kts 340°
2026-05-07 09:33 43.82520 7.03256 15318 ft 382 kts 340°
2026-05-07 09:33 43.85065 7.02127 15973 ft 385 kts 340°
2026-05-07 09:33 43.87607 7.00998 16569 ft 389 kts 340°
2026-05-07 09:34 43.90200 6.99845 17189 ft 393 kts 340°
2026-05-07 09:34 43.92820 6.98676 17802 ft 396 kts 340°
2026-05-07 09:34 43.95462 6.97496 18373 ft 400 kts 340°
2026-05-07 09:34 43.98124 6.96308 18908 ft 402 kts 339°
2026-05-07 09:35 44.00806 6.95110 19445 ft 405 kts 339°
2026-05-07 09:35 44.03460 6.93923 20043 ft 405 kts 339°
2026-05-07 09:35 44.06161 6.92714 20615 ft 406 kts 339°
2026-05-07 09:35 44.08846 6.91511 21135 ft 409 kts 339°
2026-05-07 09:36 44.11590 6.90281 21600 ft 413 kts 339°
2026-05-07 09:36 44.14318 6.89076 22004 ft 417 kts 341°
2026-05-07 09:36 44.17210 6.88345 22539 ft 423 kts 349°
2026-05-07 09:36 44.20149 6.87916 23038 ft 426 kts 351°
2026-05-07 09:37 44.23089 6.87542 23508 ft 428 kts 351°
2026-05-07 09:37 44.26079 6.87163 23937 ft 429 kts 351°
2026-05-07 09:37 44.29036 6.86766 24245 ft 433 kts 350°
2026-05-07 09:37 44.32050 6.86340 24582 ft 436 kts 350°
2026-05-07 09:38 44.35079 6.85892 24914 ft 438 kts 349°
2026-05-07 09:38 44.38128 6.85431 25286 ft 441 kts 349°
2026-05-07 09:38 44.41192 6.84965 25646 ft 443 kts 349°
2026-05-07 09:38 44.44230 6.84500 26038 ft 444 kts 349°
2026-05-07 09:39 44.47330 6.84025 26389 ft 446 kts 349°
2026-05-07 09:39 44.50391 6.83554 26657 ft 450 kts 349°
2026-05-07 09:39 44.53514 6.83075 26978 ft 452 kts 349°
2026-05-07 09:39 44.56674 6.82591 27328 ft 454 kts 349°
2026-05-07 09:40 44.59788 6.82118 27635 ft 456 kts 349°
2026-05-07 09:40 44.62964 6.81629 27912 ft 458 kts 349°
2026-05-07 09:40 44.66152 6.81136 28231 ft 460 kts 349°
2026-05-07 09:40 44.69308 6.80649 28557 ft 461 kts 348°
2026-05-07 09:41 44.72506 6.80157 29026 ft 459 kts 348°
2026-05-07 09:41 44.75673 6.79670 29589 ft 456 kts 348°
2026-05-07 09:41 44.78841 6.79180 29905 ft 457 kts 348°
2026-05-07 09:41 44.81975 6.78762 30337 ft 455 kts 351°
2026-05-07 09:42 44.85140 6.78509 30698 ft 455 kts 352°
2026-05-07 09:42 44.88329 6.78330 30916 ft 458 kts 352°
2026-05-07 09:42 44.91526 6.78169 31119 ft 460 kts 352°
2026-05-07 09:42 44.94718 6.78001 31363 ft 460 kts 352°
2026-05-07 09:43 44.97890 6.77820 31592 ft 460 kts 352°
2026-05-07 09:43 45.01102 6.77621 31910 ft 459 kts 352°
2026-05-07 09:43 45.04257 6.77417 32343 ft 455 kts 352°
2026-05-07 09:43 45.07444 6.77207 32608 ft 455 kts 351°
2026-05-07 09:44 45.10623 6.76997 32774 ft 457 kts 351°
2026-05-07 09:44 45.13777 6.76784 33069 ft 458 kts 351°
2026-05-07 09:44 45.16969 6.76571 33389 ft 457 kts 352°
2026-05-07 09:44 45.20147 6.76360 33772 ft 456 kts 352°
2026-05-07 09:45 45.23277 6.76152 34085 ft 454 kts 352°
2026-05-07 09:45 45.26441 6.75943 34304 ft 454 kts 352°
2026-05-07 09:45 45.29606 6.75733 34463 ft 456 kts 352°
2026-05-07 09:45 45.32787 6.75520 34629 ft 457 kts 352°
2026-05-07 09:46 45.35963 6.75314 34836 ft 457 kts 352°
2026-05-07 09:46 45.39105 6.75117 35068 ft 457 kts 352°
2026-05-07 09:46 45.42304 6.74915 35273 ft 458 kts 353°
2026-05-07 09:46 45.45458 6.74716 35480 ft 458 kts 353°
2026-05-07 09:47 45.48652 6.74507 35679 ft 458 kts 352°
2026-05-07 09:47 45.51850 6.74291 35846 ft 459 kts 352°
2026-05-07 09:47 45.55009 6.74074 36010 ft 458 kts 352°
2026-05-07 09:48 45.61404 6.73637 36049 ft 458 kts 353°
2026-05-07 09:48 45.67767 6.73203 36026 ft 458 kts 353°
2026-05-07 09:49 45.74139 6.72768 36026 ft 461 kts 353°
2026-05-07 09:49 45.80587 6.72328 36027 ft 463 kts 353°
2026-05-07 09:50 45.87016 6.71884 36024 ft 464 kts 353°
2026-05-07 09:50 45.93450 6.71437 36010 ft 463 kts 353°
2026-05-07 09:51 45.99869 6.70990 36033 ft 461 kts 353°
2026-05-07 09:51 46.06293 6.70542 36024 ft 459 kts 353°
2026-05-07 09:52 46.12637 6.69903 36018 ft 454 kts 346°
2026-05-07 09:52 46.18607 6.67384 36034 ft 448 kts 337°
2026-05-07 09:53 46.24474 6.64425 36024 ft 447 kts 337°
2026-05-07 09:53 46.30358 6.61489 36027 ft 448 kts 337°
2026-05-07 09:54 46.36289 6.58574 36018 ft 449 kts 338°
2026-05-07 09:54 46.42239 6.55666 36027 ft 451 kts 338°
2026-05-07 09:55 46.48170 6.52762 36026 ft 452 kts 338°
2026-05-07 09:55 46.54107 6.49845 36024 ft 453 kts 338°
2026-05-07 09:56 46.60070 6.46908 36035 ft 453 kts 338°
2026-05-07 09:56 46.66078 6.43942 36036 ft 454 kts 338°
2026-05-07 09:57 46.72041 6.40991 36035 ft 454 kts 338°
2026-05-07 09:57 46.78034 6.38018 36040 ft 454 kts 338°
2026-05-07 09:58 46.84039 6.35031 36040 ft 454 kts 338°
2026-05-07 09:58 46.90018 6.32053 36044 ft 454 kts 338°
2026-05-07 09:59 46.95982 6.29073 36050 ft 453 kts 338°
2026-05-07 09:59 47.01932 6.26094 36051 ft 453 kts 338°
2026-05-07 10:00 47.07836 6.22971 36057 ft 450 kts 333°
2026-05-07 10:00 47.13446 6.18944 36056 ft 448 kts 330°
2026-05-07 10:01 47.19019 6.14794 36057 ft 448 kts 331°
2026-05-07 10:01 47.23685 6.11402 36065 ft 448 kts 331°
2026-05-07 10:02 47.30191 6.06711 36053 ft 448 kts 331°
2026-05-07 10:02 47.35078 6.04028 36056 ft 452 kts 345°
2026-05-07 10:03 47.41395 6.03222 36071 ft 457 kts 358°
2026-05-07 10:03 47.47748 6.03466 36066 ft 458 kts 359°
2026-05-07 10:04 47.54119 6.03684 36059 ft 459 kts 358°
2026-05-07 10:04 47.60509 6.03827 36057 ft 460 kts 358°
2026-05-07 10:05 47.66897 6.03953 36063 ft 461 kts 358°
2026-05-07 10:05 47.73331 6.04138 36048 ft 462 kts
2026-05-07 10:06 47.79616 6.05978 36056 ft 464 kts 12°
2026-05-07 10:06 47.85882 6.08449 36061 ft 464 kts 13°
2026-05-07 10:07 47.92108 6.10877 36049 ft 464 kts 12°
2026-05-07 10:07 47.98341 6.13249 36066 ft 463 kts 12°
2026-05-07 10:08 48.04590 6.15609 36063 ft 463 kts 12°
2026-05-07 10:08 48.10813 6.17963 36050 ft 463 kts 12°
2026-05-07 10:09 48.17072 6.20339 36048 ft 462 kts 12°
2026-05-07 10:09 48.23303 6.22713 36049 ft 462 kts 12°
2026-05-07 10:10 48.29508 6.25082 36052 ft 461 kts 12°
2026-05-07 10:10 48.35747 6.27470 36045 ft 462 kts 12°
2026-05-07 10:11 48.41954 6.29852 36048 ft 462 kts 12°
2026-05-07 10:11 48.48186 6.32250 36056 ft 461 kts 13°
2026-05-07 10:12 48.54383 6.34640 36051 ft 461 kts 13°
2026-05-07 10:12 48.60610 6.37048 36045 ft 461 kts 13°
2026-05-07 10:13 48.66814 6.39299 36045 ft 459 kts
2026-05-07 10:13 48.73177 6.40045 36053 ft 458 kts
2026-05-07 10:14 48.79526 6.40550 36045 ft 458 kts
2026-05-07 10:14 48.85877 6.41147 36046 ft 458 kts
2026-05-07 10:15 48.92253 6.41805 36053 ft 458 kts
2026-05-07 10:15 48.98591 6.42467 36048 ft 458 kts
2026-05-07 10:16 49.04984 6.43132 36052 ft 459 kts
2026-05-07 10:16 49.11329 6.43480 36040 ft 457 kts 353°
2026-05-07 10:17 49.17533 6.41482 36048 ft 454 kts 343°
2026-05-07 10:17 49.23602 6.38851 36038 ft 455 kts 343°
2026-05-07 10:18 49.29721 6.36256 36036 ft 455 kts 343°
2026-05-07 10:18 49.35834 6.33719 36043 ft 456 kts 343°
2026-05-07 10:19 49.41942 6.31189 36048 ft 456 kts 343°
2026-05-07 10:19 49.48062 6.28643 36041 ft 457 kts 343°
2026-05-07 10:20 49.54226 6.26088 36058 ft 456 kts 343°
2026-05-07 10:20 49.60349 6.23592 36050 ft 457 kts 344°
2026-05-07 10:21 49.66467 6.20950 35992 ft 449 kts 336°
2026-05-07 10:21 49.69172 6.18816 35456 ft 437 kts 326°
2026-05-07 10:21 49.71609 6.16009 34615 ft 435 kts 318°
2026-05-07 10:21 49.73737 6.12677 33568 ft 436 kts 311°
2026-05-07 10:22 49.75780 6.09160 32308 ft 440 kts 312°
2026-05-07 10:22 49.77848 6.05603 31024 ft 445 kts 312°
2026-05-07 10:22 49.79904 6.02078 29735 ft 448 kts 312°
2026-05-07 10:22 49.81999 5.98499 28357 ft 448 kts 312°
2026-05-07 10:23 49.84097 5.94925 27291 ft 443 kts 312°
2026-05-07 10:23 49.86158 5.91418 26391 ft 434 kts 312°
2026-05-07 10:23 49.88152 5.88022 25501 ft 427 kts 312°
2026-05-07 10:23 49.90147 5.84623 24578 ft 422 kts 311°
2026-05-07 10:24 49.92120 5.81258 23665 ft 417 kts 311°
2026-05-07 10:24 49.94048 5.77964 22649 ft 412 kts 311°
2026-05-07 10:24 49.95973 5.74670 21686 ft 406 kts 311°
2026-05-07 10:24 49.97839 5.71474 20776 ft 400 kts 311°
2026-05-07 10:25 49.99703 5.68275 19886 ft 395 kts 311°
2026-05-07 10:25 50.01547 5.65108 19060 ft 394 kts 311°
2026-05-07 10:25 50.03362 5.61986 18507 ft 391 kts 311°
2026-05-07 10:25 50.05189 5.58841 17913 ft 388 kts 311°
2026-05-07 10:26 50.06994 5.55729 17342 ft 384 kts 311°
2026-05-07 10:26 50.08756 5.52688 16839 ft 380 kts 311°
2026-05-07 10:26 50.10524 5.49631 16318 ft 376 kts 311°
2026-05-07 10:26 50.12270 5.46612 15809 ft 372 kts 311°
2026-05-07 10:27 50.13998 5.43624 15380 ft 367 kts 312°
2026-05-07 10:27 50.15886 5.41065 15131 ft 362 kts 325°
2026-05-07 10:27 50.18088 5.39131 14903 ft 366 kts 333°
2026-05-07 10:27 50.20412 5.37382 14653 ft 370 kts 333°
2026-05-07 10:28 50.22733 5.35651 14200 ft 367 kts 333°
2026-05-07 10:28 50.25003 5.33954 13709 ft 364 kts 333°
2026-05-07 10:28 50.27281 5.32240 13185 ft 361 kts 333°
2026-05-07 10:28 50.29536 5.30535 12676 ft 358 kts 333°
2026-05-07 10:29 50.31775 5.28834 12199 ft 354 kts 333°
2026-05-07 10:29 50.33965 5.27166 11714 ft 351 kts 333°
2026-05-07 10:29 50.36162 5.25488 11234 ft 348 kts 333°
2026-05-07 10:30 50.40388 5.22252 10809 ft 328 kts 333°
2026-05-07 10:30 50.42418 5.20695 10665 ft 318 kts 333°
2026-05-07 10:30 50.44376 5.19193 10529 ft 308 kts 333°
2026-05-07 10:30 50.46277 5.17732 10407 ft 299 kts 334°
2026-05-07 10:31 50.48095 5.16333 10289 ft 290 kts 334°
2026-05-07 10:31 50.49887 5.14953 10154 ft 281 kts 334°
2026-05-07 10:31 50.51614 5.13623 10037 ft 274 kts 334°
2026-05-07 10:31 50.53342 5.12290 9742 ft 273 kts 334°
2026-05-07 10:32 50.55018 5.10997 9466 ft 271 kts 333°
2026-05-07 10:32 50.56712 5.09689 9183 ft 269 kts 333°
2026-05-07 10:32 50.58385 5.08395 8909 ft 267 kts 333°
2026-05-07 10:32 50.60055 5.07104 8632 ft 266 kts 333°
2026-05-07 10:33 50.61695 5.05835 8362 ft 264 kts 333°
2026-05-07 10:33 50.63343 5.04557 8098 ft 262 kts 333°
2026-05-07 10:33 50.64978 5.03290 7833 ft 261 kts 333°
2026-05-07 10:33 50.66612 5.02022 7565 ft 260 kts 333°
2026-05-07 10:34 50.68211 5.00780 7294 ft 259 kts 333°
2026-05-07 10:34 50.69829 4.99523 7035 ft 258 kts 333°
2026-05-07 10:34 50.71442 4.98268 6764 ft 257 kts 333°
2026-05-07 10:34 50.73047 4.97018 6498 ft 256 kts 333°
2026-05-07 10:35 50.74632 4.95783 6219 ft 255 kts 333°
2026-05-07 10:35 50.76229 4.94538 5946 ft 254 kts 333°
2026-05-07 10:35 50.77798 4.93313 5684 ft 253 kts 333°
2026-05-07 10:35 50.79371 4.92085 5430 ft 251 kts 334°
2026-05-07 10:36 50.80925 4.90871 5148 ft 251 kts 334°
2026-05-07 10:36 50.82493 4.89644 4870 ft 251 kts 334°
2026-05-07 10:36 50.84057 4.88421 4586 ft 250 kts 334°
2026-05-07 10:36 50.85624 4.87193 4315 ft 249 kts 334°
2026-05-07 10:37 50.87156 4.85992 4212 ft 241 kts 334°
2026-05-07 10:37 50.88623 4.84842 4087 ft 235 kts 335°
2026-05-07 10:37 50.90071 4.83706 3983 ft 227 kts 335°
2026-05-07 10:37 50.91468 4.82609 3893 ft 220 kts 335°
2026-05-07 10:38 50.92825 4.81542 3765 ft 214 kts 335°
2026-05-07 10:38 50.94146 4.80500 3528 ft 212 kts 333°
2026-05-07 10:38 50.95186 4.78937 3298 ft 205 kts 295°
2026-05-07 10:38 50.95297 4.76802 3109 ft 197 kts 256°
2026-05-07 10:39 50.94935 4.74697 2926 ft 194 kts 256°
2026-05-07 10:39 50.94574 4.72698 2747 ft 181 kts 253°
2026-05-07 10:39 50.94171 4.70811 2598 ft 181 kts 251°
2026-05-07 10:39 50.93750 4.68956 2348 ft 179 kts 250°
2026-05-07 10:40 50.93330 4.67132 2110 ft 169 kts 250°
2026-05-07 10:40 50.92936 4.65441 1904 ft 158 kts 250°
2026-05-07 10:40 50.92567 4.63850 1714 ft 153 kts 250°
2026-05-07 10:40 50.92194 4.62247 1502 ft 155 kts 250°
2026-05-07 10:41 50.91822 4.60645 1292 ft 154 kts 250°
2026-05-07 10:41 50.91451 4.59044 1098 ft 155 kts 250°
2026-05-07 10:41 50.91080 4.57450 891 ft 152 kts 250°
2026-05-07 10:41 50.90717 4.55874 694 ft 152 kts 251°
2026-05-07 10:42 50.90358 4.54332 510 ft 151 kts 251°
2026-05-07 10:42 50.89991 4.52746 258 ft 154 kts 251°
2026-05-07 10:42 50.89643 4.51219 174 ft 138 kts 250°
2026-05-07 10:42 50.89369 4.50056 176 ft 85 kts 250°
2026-05-07 10:43 50.89250 4.49540 175 ft 29 kts 250°
2026-05-07 10:43 50.89243 4.49299 174 ft 21 kts 293°
2026-05-07 10:43 50.89334 4.49116 166 ft 22 kts 320°
2026-05-07 10:43 50.89462 4.49024 158 ft 22 kts
2026-05-07 10:44 50.89607 4.49092 153 ft 21 kts 29°
2026-05-07 10:44 50.89743 4.49184 145 ft 22 kts 13°
2026-05-07 10:44 50.89893 4.49246 137 ft 22 kts 15°
2026-05-07 10:44 50.90041 4.49212 128 ft 22 kts 341°
2026-05-07 10:45 50.90081 4.49185 126 ft 0 kts 335°